STARLINK-1046, 44751

Orbit data source: Space-Track

STARLINK-1046, 44751 is a payload satellite owned by SpaceX/Seattle (US) in LEO that was launched on Mon, 11 Nov 2019 UTC via an FALCON 9 launch vehicle from the Air Force Eastern Test Range (AFETR). Payload-class satellites include a variety of spacecraft equipped with specific instruments for various scientific and technological missions. These include communications satellites like Starlink; space stations such as the ISS; scientific satellites like the Hubble; Earth observation satellites from companies like Planet Labs, Umbra, and HawkEye 360; GPS; miniature CubeSats for education and research; and military/defense satellites.

Loading next visibility...
Identifier
44751, 2019-074AQ
Orbit
LEO
Country
Flag of USUS
Related business
Manufacturer
SpaceX/Seattle
Mission
Partially operational Commercial Communications
Bus & Motor
STARLINK, Unknown motor
Mass
260 kg wet, ~248 kg dry
Launch date (UTC)
2019-11-11 (6 years ago)
Launch vehicle
FALCON 9
Launch site
Air Force Eastern Test Range (AFETR)
Object type
Payload
Rocket body
Debris
Shape & HBR
Box + 1 Pan, 10.1 m
Radar Cross Section
13.562 m², Large (>1 m²)

Expand to show TLE details & history
Last TLE update: 11 hours ago

TLE from 11 hours ago
0 STARLINK-1046
1 44751U 19074AQ  26072.36517830  .00041681  00000-0  90586-3 0  9993
2 44751  53.0537 193.3807 0004428 187.8060 172.2877 15.43945252348981
Epoch: 2026-03-13T08:45Z
TLE epoch observation values (Epoch: 2026-03-13T08:45:51.405Z)
Latitude
-0.00001°
Longitude
-109.08526°
Altitude
438.362 km
Speed
7.648 km/s
True Right ascension
12h 53m 31s
True Declination
0° 00' 00"
Sunlit
Object was in full shadow at epoch
Visualization orbit readout
Latitude
Unknown
Longitude
Unknown
Altitude
Unknown
Speed
Unknown
Apparent Right ascension
Unknown
Apparent Declination
Unknown
Sunlit
N/A
Visualization observer readout
Local Sidereal Time
23:57:09
Azimuth
Unknown
Elevation
Unknown
Doppler factor
Unknown
Orbital elements
Apogee altitude
437.771 km
Perigee altitude
431.737 km
Semi-major axis
6,812.891 km
Eccentricity
0.00044
Inclination
53.0537°
RAAN
193.3807°
Arg. of periapsis
187.806°
True anomaly
172.29451°
Mean anomaly
172.2877°
Eccentric anomaly
172.2911°
Mean motion
3.85963 °/min
Orbital period
93.27 mins
BSTAR
0.00090586
Loading maneuver chart data...
Computing Atmospheric mass density...

Documentation

Showing up to 5 results
|